Year,Month,Day,Hour,Minute,Value (Times are PST for temperature in C)
2014,08,12,00,00,22.30
2014,08,12,00,01,22.30
2014,08,12,00,02,22.20
2014,08,12,00,03,22.20
2014,08,12,00,04,22.20
2014,08,12,00,05,22.20
2014,08,12,00,06,22.20
2014,08,12,00,07,22.20
2014,08,12,00,08,22.10
2014,08,12,00,09,22.10
2014,08,12,00,10,22.10
2014,08,12,00,11,22.10
2014,08,12,00,12,22.10
2014,08,12,00,13,22.10
2014,08,12,00,14,22.00
2014,08,12,00,15,22.00
2014,08,12,00,16,22.00
2014,08,12,00,17,21.90
2014,08,12,00,18,21.90
2014,08,12,00,19,21.90
2014,08,12,00,20,21.80
2014,08,12,00,21,21.80
2014,08,12,00,22,21.80
2014,08,12,00,23,21.80
2014,08,12,00,24,21.80
2014,08,12,00,25,21.70
2014,08,12,00,26,21.70
2014,08,12,00,27,21.70
2014,08,12,00,28,21.60
2014,08,12,00,29,21.60
2014,08,12,00,30,21.60
2014,08,12,00,31,21.60
2014,08,12,00,32,21.60
2014,08,12,00,33,21.60
2014,08,12,00,34,21.60
2014,08,12,00,35,21.60
2014,08,12,00,36,21.60
2014,08,12,00,37,21.70
2014,08,12,00,38,21.70
2014,08,12,00,39,21.80
2014,08,12,00,40,21.90
2014,08,12,00,41,22.00
2014,08,12,00,42,22.10
2014,08,12,00,43,22.20
2014,08,12,00,44,22.20
2014,08,12,00,45,22.30
2014,08,12,00,46,22.40
2014,08,12,00,47,22.50
2014,08,12,00,48,22.60
2014,08,12,00,49,22.70
2014,08,12,00,50,22.80
2014,08,12,00,51,23.00
2014,08,12,00,52,23.00
2014,08,12,00,53,23.10
2014,08,12,00,54,23.20
2014,08,12,00,55,23.20
2014,08,12,00,56,23.30
2014,08,12,00,57,23.30
2014,08,12,00,58,23.30
2014,08,12,00,59,23.40
2014,08,12,01,00,23.40
2014,08,12,01,01,23.50
2014,08,12,01,02,23.50
2014,08,12,01,03,23.60
2014,08,12,01,04,23.60
2014,08,12,01,05,23.60
2014,08,12,01,06,23.60
2014,08,12,01,07,23.60
2014,08,12,01,08,23.60
2014,08,12,01,09,23.60
2014,08,12,01,10,23.60
2014,08,12,01,11,23.60
2014,08,12,01,12,23.60
2014,08,12,01,13,23.60
2014,08,12,01,14,23.60
2014,08,12,01,15,23.60
2014,08,12,01,16,23.70
2014,08,12,01,17,23.70
2014,08,12,01,18,23.70
2014,08,12,01,19,23.80
2014,08,12,01,20,23.80
2014,08,12,01,21,23.80
2014,08,12,01,22,23.80
2014,08,12,01,23,23.80
2014,08,12,01,24,23.80
2014,08,12,01,25,23.90
2014,08,12,01,26,23.90
2014,08,12,01,27,23.90
2014,08,12,01,28,23.90
2014,08,12,01,29,23.90
2014,08,12,01,30,23.90
2014,08,12,01,31,23.90
2014,08,12,01,32,23.90
2014,08,12,01,33,23.90
2014,08,12,01,34,23.80
2014,08,12,01,35,23.80
2014,08,12,01,36,23.80
2014,08,12,01,37,23.70
2014,08,12,01,38,23.70
2014,08,12,01,39,23.70
2014,08,12,01,40,23.60
2014,08,12,01,41,23.60
2014,08,12,01,42,23.60
2014,08,12,01,43,23.60
2014,08,12,01,44,23.50
2014,08,12,01,45,23.50
2014,08,12,01,46,23.40
2014,08,12,01,47,23.40
2014,08,12,01,48,23.40
2014,08,12,01,49,23.30
2014,08,12,01,50,23.30
2014,08,12,01,51,23.30
2014,08,12,01,52,23.20
2014,08,12,01,53,23.20
2014,08,12,01,54,23.20
2014,08,12,01,55,23.10
2014,08,12,01,56,23.10
2014,08,12,01,57,23.00
2014,08,12,01,58,23.00
2014,08,12,01,59,22.90
2014,08,12,02,00,22.90
2014,08,12,02,01,22.80
2014,08,12,02,02,22.80
2014,08,12,02,03,22.80
2014,08,12,02,04,22.80
2014,08,12,02,05,22.80
2014,08,12,02,06,22.80
2014,08,12,02,07,22.80
2014,08,12,02,08,22.80
2014,08,12,02,09,22.80
2014,08,12,02,10,22.80
2014,08,12,02,11,22.80
2014,08,12,02,12,22.70
2014,08,12,02,13,22.70
2014,08,12,02,14,22.70
2014,08,12,02,15,22.70
2014,08,12,02,16,22.70
2014,08,12,02,17,22.70
2014,08,12,02,18,22.70
2014,08,12,02,19,22.60
2014,08,12,02,20,22.60
2014,08,12,02,21,22.60
2014,08,12,02,22,22.60
2014,08,12,02,23,22.60
2014,08,12,02,24,22.50
2014,08,12,02,25,22.50
2014,08,12,02,26,22.40
2014,08,12,02,27,22.40
2014,08,12,02,28,22.40
2014,08,12,02,29,22.30
2014,08,12,02,30,22.30
2014,08,12,02,31,22.30
2014,08,12,02,32,22.30
2014,08,12,02,33,22.20
2014,08,12,02,34,22.20
2014,08,12,02,35,22.20
2014,08,12,02,36,22.10
2014,08,12,02,37,22.10
2014,08,12,02,38,22.10
2014,08,12,02,39,22.00
2014,08,12,02,40,22.00
2014,08,12,02,41,22.00
2014,08,12,02,42,21.90
2014,08,12,02,43,21.90
2014,08,12,02,44,21.90
2014,08,12,02,45,21.90
2014,08,12,02,46,21.90
2014,08,12,02,47,21.80
2014,08,12,02,48,21.80
2014,08,12,02,49,21.80
2014,08,12,02,50,21.80
2014,08,12,02,51,21.80
2014,08,12,02,52,21.80
2014,08,12,02,53,21.80
2014,08,12,02,54,21.70
2014,08,12,02,55,21.70
2014,08,12,02,56,21.70
2014,08,12,02,57,21.60
2014,08,12,02,58,21.60
2014,08,12,02,59,21.50
2014,08,12,03,00,21.50
2014,08,12,03,01,21.50
2014,08,12,03,02,21.50
2014,08,12,03,06,21.40
2014,08,12,03,07,21.40
2014,08,12,03,08,21.40
2014,08,12,03,09,21.40
2014,08,12,03,10,21.40
2014,08,12,03,11,21.40
2014,08,12,03,12,21.40
2014,08,12,03,13,21.40
2014,08,12,03,14,21.40
2014,08,12,03,15,21.30
2014,08,12,03,16,21.30
2014,08,12,03,17,21.30
2014,08,12,03,18,21.30
2014,08,12,03,19,21.30
2014,08,12,03,20,21.30
2014,08,12,03,21,21.30
2014,08,12,03,22,21.30
2014,08,12,03,23,21.30
2014,08,12,03,24,21.30
2014,08,12,03,25,21.20
2014,08,12,03,26,21.20
2014,08,12,03,27,21.20
2014,08,12,03,28,21.20
2014,08,12,03,29,21.20
2014,08,12,03,30,21.20
2014,08,12,03,31,21.20
2014,08,12,03,32,21.20
2014,08,12,03,33,21.20
2014,08,12,03,34,21.20
2014,08,12,03,35,21.20
2014,08,12,03,36,21.10
2014,08,12,03,37,21.10
2014,08,12,03,38,21.10
2014,08,12,03,39,21.10
2014,08,12,03,40,21.10
2014,08,12,03,41,21.10
2014,08,12,03,42,21.10
2014,08,12,03,43,21.10
2014,08,12,03,44,21.10
2014,08,12,03,45,21.10
2014,08,12,03,46,21.00
2014,08,12,03,47,21.00
2014,08,12,03,48,21.00
2014,08,12,03,49,21.00
2014,08,12,03,50,20.90
2014,08,12,03,51,20.90
2014,08,12,03,52,20.90
2014,08,12,03,53,20.90
2014,08,12,03,54,20.90
2014,08,12,03,55,20.90
2014,08,12,03,56,20.90
2014,08,12,03,57,20.90
2014,08,12,03,58,20.80
2014,08,12,03,59,20.80
2014,08,12,04,00,20.80
2014,08,12,04,01,20.80
2014,08,12,04,02,20.80
2014,08,12,04,03,20.80
2014,08,12,04,04,20.80
2014,08,12,04,05,20.80
2014,08,12,04,06,20.80
2014,08,12,04,07,20.70
2014,08,12,04,08,20.70
2014,08,12,04,09,20.70
2014,08,12,04,10,20.70
2014,08,12,04,11,20.70
2014,08,12,04,12,20.70
2014,08,12,04,13,20.70
2014,08,12,04,14,20.70
2014,08,12,04,15,20.70
2014,08,12,04,16,20.70
2014,08,12,04,17,20.70
2014,08,12,04,18,20.70
2014,08,12,04,19,20.70
2014,08,12,04,20,20.70
2014,08,12,04,21,20.70
2014,08,12,04,22,20.70
2014,08,12,04,23,20.70
2014,08,12,04,24,20.70
2014,08,12,04,25,20.70
2014,08,12,04,26,20.80
2014,08,12,04,27,20.80
2014,08,12,04,28,20.80
2014,08,12,04,29,20.80
2014,08,12,04,30,20.80
2014,08,12,04,31,20.80
2014,08,12,04,32,20.80
2014,08,12,04,33,20.80
2014,08,12,04,34,20.80
2014,08,12,04,35,20.80
2014,08,12,04,36,20.80
2014,08,12,04,37,20.80
2014,08,12,04,38,20.80
2014,08,12,04,39,20.80
2014,08,12,04,40,20.80
2014,08,12,04,41,20.90
2014,08,12,04,42,20.90
2014,08,12,04,43,20.90
2014,08,12,04,44,21.00
2014,08,12,04,45,21.00
2014,08,12,04,46,21.10
2014,08,12,04,47,21.10
2014,08,12,04,48,21.10
2014,08,12,04,49,21.10
2014,08,12,04,50,21.10
2014,08,12,04,51,21.10
2014,08,12,04,52,21.20
2014,08,12,04,53,21.20
2014,08,12,04,54,21.20
2014,08,12,04,55,21.20
2014,08,12,04,56,21.20
2014,08,12,04,57,21.20
2014,08,12,04,58,21.20
2014,08,12,04,59,21.20
2014,08,12,05,00,21.20
2014,08,12,05,01,21.20
2014,08,12,05,02,21.20
2014,08,12,05,03,21.20
2014,08,12,05,04,21.10
2014,08,12,05,05,21.10
2014,08,12,05,06,21.10
2014,08,12,05,07,21.10
2014,08,12,05,08,21.00
2014,08,12,05,09,21.00
2014,08,12,05,10,21.00
2014,08,12,05,11,21.00
2014,08,12,05,12,20.90
2014,08,12,05,13,20.90
2014,08,12,05,14,20.90
2014,08,12,05,15,20.90
2014,08,12,05,16,20.90
2014,08,12,05,17,20.90
2014,08,12,05,18,20.90
2014,08,12,05,19,20.80
2014,08,12,05,20,20.80
2014,08,12,05,21,20.80
2014,08,12,05,22,20.80
2014,08,12,05,23,20.80
2014,08,12,05,24,20.80
2014,08,12,05,25,20.80
2014,08,12,05,26,20.80
2014,08,12,05,27,20.80
2014,08,12,05,28,20.80
2014,08,12,05,29,20.80
2014,08,12,05,30,20.80
2014,08,12,05,31,20.90
2014,08,12,05,32,20.90
2014,08,12,05,33,20.90
2014,08,12,05,34,20.80
2014,08,12,05,35,20.80
2014,08,12,05,36,20.80
2014,08,12,05,37,20.80
2014,08,12,05,38,20.80
2014,08,12,05,39,20.80
2014,08,12,05,40,20.80
2014,08,12,05,41,20.80
2014,08,12,05,42,20.80
2014,08,12,05,43,20.80
2014,08,12,05,44,20.80
2014,08,12,05,45,20.80
2014,08,12,05,46,20.90
2014,08,12,05,47,20.90
2014,08,12,05,48,20.90
2014,08,12,05,49,20.90
2014,08,12,05,50,20.90
2014,08,12,05,51,20.90
2014,08,12,05,52,20.90
2014,08,12,05,53,21.00
2014,08,12,05,54,21.00
2014,08,12,05,55,21.00
2014,08,12,05,56,21.00
2014,08,12,05,57,21.00
2014,08,12,05,58,21.10
2014,08,12,05,59,21.10
2014,08,12,06,00,21.10
2014,08,12,06,01,21.10
2014,08,12,06,02,21.20
2014,08,12,06,03,21.20
2014,08,12,06,04,21.30
2014,08,12,06,05,21.30
2014,08,12,06,06,21.30
2014,08,12,06,07,21.30
2014,08,12,06,08,21.40
2014,08,12,06,09,21.40
2014,08,12,06,10,21.40
2014,08,12,06,11,21.40
2014,08,12,06,12,21.40
2014,08,12,06,13,21.40
2014,08,12,06,14,21.40
2014,08,12,06,15,21.40
2014,08,12,06,16,21.40
2014,08,12,06,17,21.40
2014,08,12,06,18,21.40
2014,08,12,06,19,21.40
2014,08,12,06,20,21.40
2014,08,12,06,21,21.40
2014,08,12,06,22,21.30
2014,08,12,06,23,21.30
2014,08,12,06,24,21.30
2014,08,12,06,25,21.30
2014,08,12,06,26,21.30
2014,08,12,06,27,21.30
2014,08,12,06,28,21.30
2014,08,12,06,29,21.30
2014,08,12,06,30,21.30
2014,08,12,06,31,21.30
2014,08,12,06,32,21.30
2014,08,12,06,33,21.20
2014,08,12,06,34,21.20
2014,08,12,06,35,21.20
2014,08,12,06,36,21.20
2014,08,12,06,37,21.20
2014,08,12,06,38,21.10
2014,08,12,06,39,21.10
2014,08,12,06,40,21.10
2014,08,12,06,41,21.10
2014,08,12,06,42,21.00
2014,08,12,06,43,21.00
2014,08,12,06,44,21.00
2014,08,12,06,45,21.00
2014,08,12,06,46,20.90
2014,08,12,06,47,20.90
2014,08,12,06,48,20.90
2014,08,12,06,49,20.90
2014,08,12,06,50,20.90
2014,08,12,06,51,20.90
2014,08,12,06,52,20.80
2014,08,12,06,53,20.80
2014,08,12,06,54,20.80
2014,08,12,06,55,20.70
2014,08,12,06,56,20.70
2014,08,12,06,57,20.70
2014,08,12,06,58,20.70
2014,08,12,06,59,20.70
2014,08,12,07,00,20.70
2014,08,12,07,01,20.70
2014,08,12,07,02,20.60
2014,08,12,07,03,20.60
2014,08,12,07,04,20.60
2014,08,12,07,05,20.60
2014,08,12,07,06,20.60
2014,08,12,07,07,20.60
2014,08,12,07,08,20.50
2014,08,12,07,09,20.50
2014,08,12,07,10,20.50
2014,08,12,07,11,20.50
2014,08,12,07,12,20.50
2014,08,12,07,13,20.40
2014,08,12,07,14,20.40
2014,08,12,07,15,20.40
2014,08,12,07,16,20.40
2014,08,12,07,17,20.40
2014,08,12,07,18,20.50
2014,08,12,07,19,20.50
2014,08,12,07,20,20.50
2014,08,12,07,21,20.50
2014,08,12,07,22,20.60
2014,08,12,07,23,20.60
2014,08,12,07,24,20.60
2014,08,12,07,25,20.60
2014,08,12,07,26,20.60
2014,08,12,07,27,20.60
2014,08,12,07,28,20.60
2014,08,12,07,29,20.70
2014,08,12,07,30,20.70
2014,08,12,07,31,20.70
2014,08,12,07,32,20.70
2014,08,12,07,33,20.70
2014,08,12,07,34,20.70
2014,08,12,07,35,20.70
2014,08,12,07,36,20.70
2014,08,12,07,37,20.70
2014,08,12,07,38,20.70
2014,08,12,07,39,20.70
2014,08,12,07,40,20.70
2014,08,12,07,41,20.70
2014,08,12,07,42,20.80
2014,08,12,07,43,20.80
2014,08,12,07,44,20.80
2014,08,12,07,45,20.80
2014,08,12,07,46,20.80
2014,08,12,07,47,20.80
2014,08,12,07,48,20.80
2014,08,12,07,49,20.80
2014,08,12,07,50,20.80
2014,08,12,07,51,20.80
2014,08,12,07,52,20.80
2014,08,12,07,53,20.80
2014,08,12,07,54,20.80
2014,08,12,07,55,20.90
2014,08,12,07,56,20.90
2014,08,12,07,57,20.90
2014,08,12,07,58,20.90
2014,08,12,07,59,20.90
2014,08,12,08,00,21.00
2014,08,12,08,01,21.00
2014,08,12,08,02,21.10
2014,08,12,08,03,21.10
2014,08,12,08,04,21.10
2014,08,12,08,05,21.20
2014,08,12,08,06,21.20
2014,08,12,08,07,21.20
2014,08,12,08,08,21.20
2014,08,12,08,09,21.20
2014,08,12,08,10,21.30
2014,08,12,08,11,21.30
2014,08,12,08,12,21.30
2014,08,12,08,13,21.30
2014,08,12,08,14,21.40
2014,08,12,08,15,21.40
2014,08,12,08,16,21.40
2014,08,12,08,17,21.40
2014,08,12,08,18,21.50
2014,08,12,08,19,21.50
2014,08,12,08,20,21.50
2014,08,12,08,21,21.60
2014,08,12,08,22,21.60
2014,08,12,08,23,21.60
2014,08,12,08,24,21.60
2014,08,12,08,25,21.60
2014,08,12,08,26,21.60
2014,08,12,08,27,21.60
2014,08,12,08,28,21.60
2014,08,12,08,29,21.60
2014,08,12,08,30,21.60
2014,08,12,08,31,21.60
2014,08,12,08,32,21.60
2014,08,12,08,33,21.60
2014,08,12,08,34,21.60
2014,08,12,08,35,21.70
2014,08,12,08,36,21.70
2014,08,12,08,37,21.70
2014,08,12,08,38,21.70
2014,08,12,08,39,21.80
2014,08,12,08,40,21.80
2014,08,12,08,41,21.80
2014,08,12,08,42,21.80
2014,08,12,08,43,21.80
2014,08,12,08,44,21.90
2014,08,12,08,45,21.90
2014,08,12,08,46,21.90
2014,08,12,08,47,21.90
2014,08,12,08,48,21.90
2014,08,12,08,49,22.00
2014,08,12,08,50,22.00
2014,08,12,08,51,22.00
2014,08,12,08,52,22.10
2014,08,12,08,53,22.10
2014,08,12,08,54,22.10
2014,08,12,08,55,22.20
2014,08,12,08,56,22.20
2014,08,12,08,57,22.20
2014,08,12,08,58,22.20
2014,08,12,08,59,22.20
2014,08,12,09,00,22.30
2014,08,12,09,01,22.30
2014,08,12,09,02,22.30
2014,08,12,09,03,22.30
2014,08,12,09,04,22.30
2014,08,12,09,05,22.30
2014,08,12,09,06,22.30
2014,08,12,09,07,22.30
2014,08,12,09,08,22.40
2014,08,12,09,09,22.40
2014,08,12,09,10,22.40
2014,08,12,09,11,22.40
2014,08,12,09,12,22.40
2014,08,12,09,13,22.40
2014,08,12,09,14,22.40
2014,08,12,09,15,22.40
2014,08,12,09,16,22.40
2014,08,12,09,17,22.40
2014,08,12,09,18,22.40
2014,08,12,09,19,22.50
2014,08,12,09,20,22.50
2014,08,12,09,21,22.50
2014,08,12,09,22,22.50
2014,08,12,09,23,22.60
2014,08,12,09,24,22.60
2014,08,12,09,25,22.60
2014,08,12,09,26,22.60
2014,08,12,09,27,22.60
2014,08,12,09,28,22.60
2014,08,12,09,29,22.60
2014,08,12,09,30,22.60
2014,08,12,09,31,22.60
2014,08,12,09,32,22.60
2014,08,12,09,33,22.60
2014,08,12,09,34,22.60
2014,08,12,09,35,22.60
2014,08,12,09,36,22.60
2014,08,12,09,37,22.60
2014,08,12,09,38,22.70
2014,08,12,09,39,22.70
2014,08,12,09,40,22.70
2014,08,12,09,41,22.70
2014,08,12,09,42,22.70
2014,08,12,09,43,22.70
2014,08,12,09,44,22.70
2014,08,12,09,45,22.70
2014,08,12,09,46,22.70
2014,08,12,09,47,22.80
2014,08,12,09,48,22.80
2014,08,12,09,49,22.80
2014,08,12,09,50,22.80
2014,08,12,09,51,22.80
2014,08,12,09,52,22.80
2014,08,12,09,53,22.80
2014,08,12,09,54,22.80
2014,08,12,09,55,22.80
2014,08,12,09,56,22.80
2014,08,12,09,57,22.80
2014,08,12,09,58,22.80
2014,08,12,09,59,22.80
2014,08,12,10,00,22.80
2014,08,12,10,01,22.80
2014,08,12,10,02,22.80
2014,08,12,10,03,22.80
2014,08,12,10,04,22.80
2014,08,12,10,05,22.90
2014,08,12,10,06,22.90
2014,08,12,10,07,22.90
2014,08,12,10,08,23.00
2014,08,12,10,09,23.10
2014,08,12,10,10,23.10
2014,08,12,10,11,23.20
2014,08,12,10,12,23.20
2014,08,12,10,13,23.20
2014,08,12,10,14,23.20
2014,08,12,10,15,23.20
2014,08,12,10,16,23.20
2014,08,12,10,17,23.20
2014,08,12,10,18,23.10
2014,08,12,10,19,23.10
2014,08,12,10,20,23.10
2014,08,12,10,21,23.00
2014,08,12,10,22,23.00
2014,08,12,10,23,23.00
2014,08,12,10,24,22.90
2014,08,12,10,25,22.90
2014,08,12,10,26,23.00
2014,08,12,10,27,23.00
2014,08,12,10,28,23.00
2014,08,12,10,29,22.90
2014,08,12,10,30,22.90
2014,08,12,10,31,22.90
2014,08,12,10,32,22.80
2014,08,12,10,33,22.80
2014,08,12,10,34,22.80
2014,08,12,10,35,22.80
2014,08,12,10,36,22.80
2014,08,12,10,37,22.80
2014,08,12,10,38,22.80
2014,08,12,10,39,22.80
2014,08,12,10,40,22.80
2014,08,12,10,41,22.70
2014,08,12,10,42,22.70
2014,08,12,10,43,22.70
2014,08,12,10,44,22.70
2014,08,12,10,45,22.70
2014,08,12,10,46,22.60
2014,08,12,10,47,22.60
2014,08,12,10,48,22.60
2014,08,12,10,49,22.50
2014,08,12,10,50,22.50
2014,08,12,10,51,22.40
2014,08,12,10,52,22.40
2014,08,12,10,53,22.40
2014,08,12,10,54,22.30
2014,08,12,10,55,22.30
2014,08,12,10,56,22.30
2014,08,12,10,57,22.30
2014,08,12,10,58,22.30
2014,08,12,10,59,22.30
2014,08,12,11,00,22.30
2014,08,12,11,01,22.30
2014,08,12,11,02,22.30
2014,08,12,11,03,22.30
2014,08,12,11,04,22.30
2014,08,12,11,05,22.30
2014,08,12,11,06,22.30
2014,08,12,11,07,22.40
2014,08,12,11,08,22.40
2014,08,12,11,09,22.40
2014,08,12,11,10,22.40
2014,08,12,11,11,22.40
2014,08,12,11,12,22.40
2014,08,12,11,13,22.40
2014,08,12,11,14,22.40
2014,08,12,11,15,22.40
2014,08,12,11,16,22.40
2014,08,12,11,17,22.40
2014,08,12,11,18,22.50
2014,08,12,11,19,22.50
2014,08,12,11,20,22.50
2014,08,12,11,21,22.60
2014,08,12,11,22,22.60
2014,08,12,11,23,22.60
2014,08,12,11,24,22.70
2014,08,12,11,25,22.70
2014,08,12,11,26,22.70
2014,08,12,11,27,22.80
2014,08,12,11,28,22.80
2014,08,12,11,29,22.80
2014,08,12,11,30,22.80
2014,08,12,11,31,22.80
2014,08,12,11,32,22.80
2014,08,12,11,33,22.80
2014,08,12,11,34,22.80
2014,08,12,11,35,22.80
2014,08,12,11,36,22.80
2014,08,12,11,37,22.80
2014,08,12,11,38,22.80
2014,08,12,11,39,22.80
2014,08,12,11,40,22.70
2014,08,12,11,41,22.70
2014,08,12,11,42,22.60
2014,08,12,11,43,22.60
2014,08,12,11,44,22.60
2014,08,12,11,45,22.50
2014,08,12,11,46,22.50
2014,08,12,11,47,22.40
2014,08,12,11,48,22.40
2014,08,12,11,49,22.40
2014,08,12,11,50,22.30
2014,08,12,11,51,22.30
2014,08,12,11,52,22.30
2014,08,12,11,53,22.30
2014,08,12,11,54,22.30
2014,08,12,11,55,22.30
2014,08,12,11,56,22.20
2014,08,12,11,57,22.20
2014,08,12,11,58,22.20
2014,08,12,11,59,22.20
2014,08,12,12,00,22.10
2014,08,12,12,01,22.10
2014,08,12,12,02,22.10
2014,08,12,12,03,22.10
2014,08,12,12,04,22.00
2014,08,12,12,05,22.00
2014,08,12,12,06,22.00
2014,08,12,12,07,21.90
2014,08,12,12,08,21.90
2014,08,12,12,09,21.90
2014,08,12,12,10,21.90
2014,08,12,12,11,21.90
2014,08,12,12,12,21.90
2014,08,12,12,13,21.90
2014,08,12,12,14,21.90
2014,08,12,12,15,21.90
2014,08,12,12,16,21.80
2014,08,12,12,17,21.80
2014,08,12,12,18,21.80
2014,08,12,12,19,21.80
2014,08,12,12,20,21.80
2014,08,12,12,21,21.80
2014,08,12,12,22,21.80
2014,08,12,12,23,21.80
2014,08,12,12,24,21.80
2014,08,12,12,25,21.80
2014,08,12,12,26,21.80
2014,08,12,12,27,21.80
2014,08,12,12,28,21.80
2014,08,12,12,29,21.80
2014,08,12,12,30,21.70
2014,08,12,12,31,21.70
2014,08,12,12,32,21.70
2014,08,12,12,33,21.70
2014,08,12,12,34,21.80
2014,08,12,12,35,21.80
2014,08,12,12,36,21.80
2014,08,12,12,37,21.80
2014,08,12,12,38,21.80
2014,08,12,12,39,21.80
2014,08,12,12,40,21.80
2014,08,12,12,41,21.80
2014,08,12,12,42,21.80
2014,08,12,12,43,21.80
2014,08,12,12,44,21.80
2014,08,12,12,45,21.90
2014,08,12,12,46,21.90
2014,08,12,12,47,21.90
2014,08,12,12,48,21.90
2014,08,12,12,49,21.90
2014,08,12,12,50,21.90
2014,08,12,12,51,21.90
2014,08,12,12,52,21.90
2014,08,12,12,53,21.90
2014,08,12,12,54,21.90
2014,08,12,12,55,21.90
2014,08,12,12,56,21.90
2014,08,12,12,57,21.90
2014,08,12,12,58,21.90
2014,08,12,12,59,21.90
2014,08,12,13,00,21.90
2014,08,12,13,01,21.90
2014,08,12,13,02,21.90
2014,08,12,13,03,21.90
2014,08,12,13,04,21.80
2014,08,12,13,05,21.80
2014,08,12,13,06,21.80
2014,08,12,13,07,21.80
2014,08,12,13,08,21.80
2014,08,12,13,09,21.80
2014,08,12,13,10,21.80
2014,08,12,13,11,21.80
2014,08,12,13,12,21.80
2014,08,12,13,13,21.70
2014,08,12,13,14,21.70
2014,08,12,13,15,21.70
2014,08,12,13,16,21.70
2014,08,12,13,17,21.70
2014,08,12,13,18,21.70
2014,08,12,13,19,21.70
2014,08,12,13,20,21.70
2014,08,12,13,21,21.70
2014,08,12,13,22,21.60
2014,08,12,13,23,21.60
2014,08,12,13,24,21.60
2014,08,12,13,25,21.60
2014,08,12,13,26,21.60
2014,08,12,13,27,21.50
2014,08,12,13,28,21.50
2014,08,12,13,29,21.40
2014,08,12,13,30,21.40
2014,08,12,13,31,21.40
2014,08,12,13,32,21.40
2014,08,12,13,33,21.40
2014,08,12,13,34,21.40
2014,08,12,13,35,21.40
2014,08,12,13,36,21.50
2014,08,12,13,37,21.50
2014,08,12,13,38,21.50
2014,08,12,13,39,21.50
2014,08,12,13,40,21.50
2014,08,12,13,41,21.50
2014,08,12,13,42,21.60
2014,08,12,13,43,21.60
2014,08,12,13,44,21.60
2014,08,12,13,45,21.60
2014,08,12,13,46,21.60
2014,08,12,13,47,21.60
2014,08,12,13,48,21.60
2014,08,12,13,49,21.70
2014,08,12,13,50,21.70
2014,08,12,13,51,21.70
2014,08,12,13,52,21.70
2014,08,12,13,53,21.80
2014,08,12,13,54,21.80
2014,08,12,13,55,21.80
2014,08,12,13,56,21.80
2014,08,12,13,57,21.80
2014,08,12,13,58,21.90
2014,08,12,13,59,21.90
2014,08,12,14,00,21.90
2014,08,12,14,01,22.00
2014,08,12,14,02,22.00
2014,08,12,14,03,22.10
2014,08,12,14,04,22.10
2014,08,12,14,05,22.20
2014,08,12,14,06,22.20
2014,08,12,14,07,22.30
2014,08,12,14,08,22.30
2014,08,12,14,09,22.40
2014,08,12,14,10,22.40
2014,08,12,14,11,22.50
2014,08,12,14,12,22.50
2014,08,12,14,13,22.60
2014,08,12,14,14,22.60
2014,08,12,14,15,22.60
2014,08,12,14,16,22.60
2014,08,12,14,17,22.60
2014,08,12,14,18,22.60
2014,08,12,14,19,22.60
2014,08,12,14,20,22.70
2014,08,12,14,21,22.70
2014,08,12,14,22,22.70
2014,08,12,14,23,22.70
2014,08,12,14,24,22.70
2014,08,12,14,25,22.80
2014,08,12,14,26,22.80
2014,08,12,14,27,22.80
2014,08,12,14,28,22.70
2014,08,12,14,29,22.70
2014,08,12,14,30,22.70
2014,08,12,14,31,22.70
2014,08,12,14,32,22.70
2014,08,12,14,33,22.70
2014,08,12,14,34,22.60
2014,08,12,14,35,22.60
2014,08,12,14,36,22.60
2014,08,12,14,37,22.60
2014,08,12,14,38,22.60
2014,08,12,14,39,22.60
2014,08,12,14,40,22.70
2014,08,12,14,41,22.70
2014,08,12,14,42,22.70
2014,08,12,14,43,22.80
2014,08,12,14,44,22.80
2014,08,12,14,45,22.90
2014,08,12,14,46,22.90
2014,08,12,14,47,22.90
2014,08,12,14,48,23.00
2014,08,12,14,49,23.10
2014,08,12,14,50,23.10
2014,08,12,14,51,23.10
2014,08,12,14,52,23.20
2014,08,12,14,53,23.20
2014,08,12,14,54,23.20
2014,08,12,14,55,23.30
2014,08,12,14,56,23.30
2014,08,12,14,57,23.30
2014,08,12,14,58,23.40
2014,08,12,14,59,23.40
2014,08,12,15,00,23.40
2014,08,12,15,01,23.50
2014,08,12,15,02,23.50
2014,08,12,15,03,23.60
2014,08,12,15,04,23.60
2014,08,12,15,05,23.70
2014,08,12,15,06,23.70
2014,08,12,15,07,23.70
2014,08,12,15,08,23.80
2014,08,12,15,09,23.80
2014,08,12,15,10,23.80
2014,08,12,15,11,23.90
2014,08,12,15,12,23.90
2014,08,12,15,13,23.90
2014,08,12,15,14,24.00
2014,08,12,15,15,24.00
2014,08,12,15,16,24.10
2014,08,12,15,17,24.10
2014,08,12,15,18,24.10
2014,08,12,15,19,24.20
2014,08,12,15,20,24.20
2014,08,12,15,21,24.20
2014,08,12,15,22,24.20
2014,08,12,15,23,24.30
2014,08,12,15,24,24.30
2014,08,12,15,25,24.30
2014,08,12,15,26,24.30
2014,08,12,15,27,24.20
2014,08,12,15,28,24.30
2014,08,12,15,29,24.30
2014,08,12,15,30,24.30
2014,08,12,15,31,24.30
2014,08,12,15,32,24.20
2014,08,12,15,33,24.20
2014,08,12,15,34,24.20
2014,08,12,15,35,24.10
2014,08,12,15,36,24.10
2014,08,12,15,37,24.10
2014,08,12,15,38,24.10
2014,08,12,15,39,24.10
2014,08,12,15,40,24.20
2014,08,12,15,41,24.20
2014,08,12,15,42,24.20
2014,08,12,15,43,24.20
2014,08,12,15,44,24.20
2014,08,12,15,45,24.20
2014,08,12,15,46,24.20
2014,08,12,15,47,24.20
2014,08,12,15,48,24.20
2014,08,12,15,49,24.10
2014,08,12,15,50,24.10
2014,08,12,15,51,24.10
2014,08,12,15,52,24.10
2014,08,12,15,53,24.10
2014,08,12,15,54,24.10
2014,08,12,15,55,24.10
2014,08,12,15,56,24.00
2014,08,12,15,57,24.00
2014,08,12,15,58,24.00
2014,08,12,15,59,24.00
2014,08,12,16,00,24.00
2014,08,12,16,01,24.00
2014,08,12,16,02,24.00
2014,08,12,16,03,23.90
2014,08,12,16,04,23.90
2014,08,12,16,05,23.90
2014,08,12,16,06,23.90
2014,08,12,16,07,23.90
2014,08,12,16,08,23.90
2014,08,12,16,09,23.80
2014,08,12,16,10,23.80
2014,08,12,16,11,23.80
2014,08,12,16,12,23.70
2014,08,12,16,13,23.70
2014,08,12,16,14,23.70
2014,08,12,16,15,23.60
2014,08,12,16,16,23.60
2014,08,12,16,17,23.60
2014,08,12,16,18,23.50
2014,08,12,16,19,23.50
2014,08,12,16,20,23.50
2014,08,12,16,21,23.40
2014,08,12,16,22,23.40
2014,08,12,16,23,23.40
2014,08,12,16,24,23.40
2014,08,12,16,25,23.40
2014,08,12,16,26,23.40
2014,08,12,16,27,23.40
2014,08,12,16,28,23.40
2014,08,12,16,29,23.40
2014,08,12,16,30,23.40
2014,08,12,16,31,23.40
2014,08,12,16,32,23.40
2014,08,12,16,33,23.40
2014,08,12,16,34,23.30
2014,08,12,16,35,23.30
2014,08,12,16,36,23.30
2014,08,12,16,37,23.30
2014,08,12,16,38,23.20
2014,08,12,16,39,23.20
2014,08,12,16,40,23.20
2014,08,12,16,41,23.20
2014,08,12,16,42,23.10
2014,08,12,16,43,23.10
2014,08,12,16,44,23.10
2014,08,12,16,45,23.00
2014,08,12,16,46,23.00
2014,08,12,16,47,22.90
2014,08,12,16,48,22.90
2014,08,12,16,49,22.80
2014,08,12,16,50,22.80
2014,08,12,16,51,22.80
2014,08,12,16,52,22.80
2014,08,12,16,53,22.80
2014,08,12,16,54,22.70
2014,08,12,16,55,22.70
2014,08,12,16,56,22.70
2014,08,12,16,57,22.70
2014,08,12,16,58,22.70
2014,08,12,16,59,22.70
2014,08,12,17,00,22.70
2014,08,12,17,01,22.80
2014,08,12,17,02,22.80
2014,08,12,17,03,22.80
2014,08,12,17,04,22.80
2014,08,12,17,05,22.80
2014,08,12,17,06,22.80
2014,08,12,17,07,22.80
2014,08,12,17,08,22.90
2014,08,12,17,09,22.90
2014,08,12,17,10,22.90
2014,08,12,17,11,22.90
2014,08,12,17,12,23.00
2014,08,12,17,13,23.00
2014,08,12,17,14,23.10
2014,08,12,17,15,23.10
2014,08,12,17,16,23.10
2014,08,12,17,17,23.10
2014,08,12,17,18,23.20
2014,08,12,17,19,23.20
2014,08,12,17,20,23.20
2014,08,12,17,21,23.20
2014,08,12,17,22,23.20